Powrót do katalogu

STARLINK-36246

AktywnyŁącznośćVLEO
NORAD 67939·PAYLOAD·🇺🇸 United States

Wystrzelony Feb 24, 2026 z Vandenberg Space Force Base

Loading…

Następne Przeloty (najbliższe 24 godziny)

TLE

ŚwieżeSource: CelesTrak SupGP

Epoka: Sep 14, 2026, 21:10 UTC

1 67939C 26037H   26257.88243056  .00018899  00000+0  68460-3 0  2578
2 67939  42.9994 202.3620 0001245 258.7833 123.9967 15.27566441    15

Śledź STARLINK-36246 w czasie rzeczywistym z AllMySat

Download on the App Store